Theta_e
320 320 321 321 321 321 322 321 321 318 317 314 313 314 315 315 312 299 296 302 308 315 313 304 299 298 299 296 296 293 286 283 283 284 286 289 287 288 289 288 288 290 293 296 299
320 320 321 321 320 321 322 322 320 319 317 314 313 313 314 313 299 295 305 312 313 313 301 296 293 296 292 292 292 287 282 284 285 284 285 287 287 287 286 286 286 289 295 298 297
320 321 321 321 321 321 322 321 320 318 317 314 312 313 314 307 294 293 309 312 313 310 300 298 295 294 290 291 289 288 286 286 287 289 288 288 287 288 286 284 287 287 293 296 295
320 320 321 321 321 320 321 320 319 318 317 313 312 314 312 299 286 295 311 312 313 306 300 296 292 289 288 287 290 285 288 288 290 290 289 287 288 287 286 287 289 289 296 296 295
320 320 320 320 320 320 321 319 318 316 315 312 313 315 301 290 289 298 311 306 302 300 296 294 290 289 286 288 289 287 287 289 289 289 288 290 286 285 287 288 288 291 295 295 295
320 319 319 320 320 320 318 317 316 314 313 311 314 313 294 287 296 298 299 300 299 298 295 295 292 292 289 288 287 288 288 288 289 289 290 287 286 287 286 288 288 292 293 294 295
319 318 318 319 318 316 316 317 315 313 312 310 312 300 291 289 295 296 299 298 299 298 294 296 296 292 290 287 291 289 285 287 287 289 287 287 283 284 287 289 288 289 291 293 294
318 317 317 316 316 315 316 315 313 311 312 312 310 294 286 296 294 296 298 298 299 300 297 296 296 294 291 291 289 285 285 280 287 288 288 285 282 286 287 287 288 288 289 290 292
316 315 315 315 316 315 315 316 312 312 312 311 297 292 286 301 293 296 296 296 297 298 297 299 294 289 289 286 285 285 278 280 283 287 286 283 282 287 287 286 286 287 287 289 290
315 315 315 315 315 315 315 316 312 308 302 302 296 291 291 288 293 295 296 297 294 294 295 291 290 284 281 280 275 276 278 280 280 284 284 282 282 287 288 287 287 287 286 287 290
315 314 314 314 315 313 305 301 295 294 290 286 286 288 288 292 295 295 296 295 294 292 283 288 281 276 278 280 281 280 278 278 282 284 281 281 282 285 288 285 285 285 284 286 288
314 313 313 313 314 308 299 293 291 292 286 289 289 289 290 292 290 293 297 290 286 281 287 283 278 283 286 285 282 281 278 276 281 283 281 279 280 284 285 284 284 285 284 286 287
312 312 312 313 313 300 295 293 297 296 287 287 288 287 288 292 288 289 293 289 283 280 281 282 283 287 285 282 281 279 277 277 277 280 279 277 276 279 282 284 285 285 285 286 288
311 311 311 313 304 298 293 298 298 296 277 285 286 287 291 291 288 293 293 289 286 279 282 281 285 284 282 280 280 277 280 280 279 272 269 276 269 276 278 280 282 283 283 284 286
310 310 311 308 299 295 297 299 296 293 270 286 286 291 291 289 289 290 293 290 283 280 280 279 281 281 279 280 281 279 281 278 277 268 268 271 266 274 278 278 281 282 283 284 285
309 309 309 302 298 297 299 297 294 278 268 278 287 286 285 289 289 290 289 290 288 284 283 281 284 281 281 282 281 282 278 276 273 265 263 264 267 273 277 277 279 281 282 284 285
310 308 304 301 294 299 298 292 279 271 279 277 280 284 282 281 285 285 284 282 279 273 271 278 279 282 283 279 281 278 269 264 266 265 266 261 267 275 279 280 281 282 282 283 284
310 306 302 300 299 298 292 281 269 271 272 284 284 284 280 282 282 283 281 277 281 279 270 267 270 275 282 279 277 276 271 267 261 264 267 262 266 276 279 281 281 283 283 282 282
309 301 297 298 299 296 285 270 273 276 284 281 282 274 273 282 278 278 278 277 280 278 272 269 272 280 281 281 278 275 266 274 263 257 261 267 272 279 279 276 278 280 280 281 282
300 297 295 300 298 289 278 275 276 284 286 283 276 277 266 274 277 274 276 281 281 281 278 276 268 274 279 280 278 274 276 267 264 261 258 264 261 274 274 274 275 278 278 280 281
296 290 297 298 292 282 270 267 279 285 288 282 280 276 278 272 276 274 277 281 281 279 281 275 270 271 277 269 269 269 267 267 268 269 263 260 268 273 273 274 274 277 278 279 279
292 280 296 293 280 273 277 282 286 284 286 285 283 281 278 278 277 270 277 279 283 280 277 279 275 265 272 277 278 275 270 273 267 264 265 266 268 274 276 269 266 273 278 276 275
283 283 293 289 271 276 282 281 284 283 282 282 281 284 282 274 272 279 279 284 283 281 278 279 269 262 269 272 275 272 276 275 269 272 266 264 272 271 267 269 272 271 272 276 277
286 278 281 284 279 277 275 276 276 283 284 283 283 283 281 274 278 273 280 283 283 282 288 284 276 269 268 267 268 268 273 275 272 262 267 272 275 275 278 275 276 272 273 273 274
284 281 279 272 278 279 280 278 276 274 283 283 279 280 277 270 274 270 279 280 282 285 283 279 270 273 274 272 269 273 271 271 270 273 269 276 276 276 279 281 283 282 274 274 278
283 281 280 281 281 280 278 279 277 277 280 279 275 281 281 271 278 275 279 279 279 280 279 280 273 269 273 276 277 275 277 276 275 276 276 276 275 283 284 285 279 275 274 276 280
288 288 284 281 279 276 277 280 280 281 281 283 282 280 279 281 282 283 285 285 283 280 279 277 275 269 270 270 268 269 273 276 277 277 277 273 278 282 281 281 280 281 279 282 284
Wind_Speed
13 14 14 14 14 15 14 13 12 10 8 8 7 7 9 10 6 6 6 5 8 15 12 7 3 3 3 3 4 3 5 1 0 1 2 3 2 2 1 3 4 3 6 5 12
12 13 14 14 14 14 14 13 13 11 8 6 7 7 7 6 3 7 4 11 10 9 5 7 3 4 3 2 4 5 4 4 1 1 2 4 1 0 1 1 2 3 6 12 14
12 13 14 14 15 15 15 14 12 11 8 5 6 6 6 2 3 4 10 12 10 5 2 2 3 2 3 2 3 2 4 4 1 1 2 1 1 6 4 3 6 5 8 14 11
12 13 13 14 14 14 15 15 13 11 8 5 5 6 5 0 1 3 13 12 10 5 3 2 1 2 3 2 2 3 2 1 1 2 1 1 4 5 3 4 3 5 14 14 14
11 12 13 13 14 15 14 15 14 11 5 4 5 5 1 6 1 6 10 9 5 2 3 2 2 1 4 3 2 2 2 3 2 1 1 3 4 5 7 7 2 5 10 13 11
10 11 12 13 13 15 15 15 14 7 3 3 5 3 1 4 4 7 7 6 5 4 4 5 2 1 4 2 3 1 2 3 1 0 1 2 3 4 4 3 6 7 11 10 10
9 10 11 13 14 15 15 14 10 5 2 3 4 1 7 3 2 7 7 2 4 2 2 2 1 2 2 3 1 2 2 1 1 1 2 2 2 7 6 3 5 8 8 9 11
9 10 11 13 14 16 14 12 6 4 4 3 3 2 3 1 1 5 7 2 6 3 2 2 3 5 3 2 3 2 3 3 0 2 2 2 7 3 3 6 6 8 8 8 10
8 10 11 13 15 15 14 9 4 4 3 3 1 3 2 1 4 5 3 3 6 3 2 2 3 4 2 3 4 6 2 1 2 1 3 1 7 4 1 2 7 8 8 8 8
8 9 11 13 16 16 12 1 4 4 4 0 3 5 5 4 5 5 4 3 2 3 4 5 6 4 5 6 3 3 2 2 3 2 1 4 15 14 12 9 14 13 9 8 9
8 9 12 13 16 17 4 4 6 6 10 4 1 2 2 7 3 5 4 5 4 6 4 4 8 2 1 1 2 2 1 2 4 3 3 5 11 17 16 8 11 12 8 9 7
8 10 12 12 12 15 5 6 2 2 6 4 1 2 1 2 4 6 7 4 6 3 5 7 3 2 1 4 3 3 2 4 5 1 3 6 16 17 8 5 6 9 8 7 7
7 10 11 11 6 6 6 3 2 2 5 3 1 2 3 4 2 7 5 2 5 5 5 5 1 3 2 5 4 2 2 2 4 8 2 7 8 4 4 1 4 6 3 6 10
8 10 11 13 5 3 4 3 3 2 7 7 4 3 2 1 3 2 2 2 5 4 2 4 3 3 4 3 2 1 2 2 3 6 3 5 7 8 3 2 2 2 3 6 6
7 10 8 9 3 4 1 3 2 3 5 3 6 1 4 3 3 6 2 3 4 2 6 4 2 3 4 1 2 2 3 2 3 4 4 6 5 11 3 4 6 6 5 6 7
7 9 3 5 4 1 2 2 3 9 4 4 4 5 5 6 5 5 3 5 3 4 5 2 1 3 1 2 2 3 4 6 4 4 4 4 4 9 4 4 3 4 6 7 7
6 9 6 2 2 2 1 3 7 7 4 6 2 4 2 4 4 6 4 4 2 6 4 5 2 3 3 1 4 6 7 5 7 5 6 3 1 13 7 5 6 9 9 8 7
5 6 4 3 1 1 3 7 7 3 6 3 1 3 3 5 4 6 2 3 4 4 4 4 8 1 4 1 3 2 6 6 6 3 5 3 7 10 6 6 5 8 8 7 8
3 2 3 4 3 2 6 6 9 7 2 1 4 6 6 4 2 4 2 3 1 2 6 4 5 1 2 2 3 3 1 2 7 1 4 4 9 12 3 6 4 6 7 10 9
2 2 2 6 2 5 7 4 3 2 1 2 4 4 3 4 2 4 1 2 3 1 3 4 4 2 3 2 3 5 1 5 4 1 6 6 7 9 6 8 6 7 11 10 9
3 4 3 6 4 8 5 5 3 5 2 3 4 3 3 3 2 2 3 0 2 3 4 5 5 6 3 4 8 2 2 3 3 5 6 3 9 9 7 9 12 13 11 12 12
3 3 3 3 7 3 3 3 1 1 4 1 3 4 5 3 2 2 4 5 3 6 4 2 4 3 11 1 3 4 6 5 6 7 4 2 12 5 10 6 6 11 12 7 7
3 1 3 4 4 2 3 2 1 1 1 2 2 2 4 4 1 4 3 1 4 4 5 4 2 4 10 6 5 3 5 5 2 2 7 3 11 3 6 7 7 10 8 11 10
3 3 5 5 2 6 5 2 1 2 1 1 2 3 2 2 1 3 2 1 4 4 6 4 4 8 9 8 5 3 5 7 6 3 4 18 23 10 14 10 10 9 10 9 9
4 1 4 1 3 3 2 5 3 1 2 1 4 3 5 1 2 3 3 4 1 3 3 4 6 6 10 8 5 11 11 7 11 11 11 34 28 10 19 19 23 12 6 8 12
4 4 3 2 0 3 3 3 5 3 4 2 4 3 6 5 6 5 2 1 7 1 5 3 8 2 11 10 16 21 21 18 25 25 26 29 41 24 24 19 15 11 8 11 14
2 3 4 1 2 4 3 4 6 5 1 3 4 2 4 7 7 7 5 6 7 4 6 4 2 1 18 3 6 19 21 25 22 14 18 22 32 24 25 21 18 14 11 18 21
Wind_Direction
11 6 9 10 9 3 358 0 355 352 342 342 339 340 347 346 10 38 40 282 309 316 324 279 292 341 35 57 40 82 61 188 350 328 278 348 96 6 285 106 66 12 143 185 141
6 358 359 1 357 352 352 354 351 351 337 334 334 341 346 358 80 54 299 331 323 326 0 18 26 358 33 41 12 87 114 204 195 255 291 331 59 343 128 54 91 51 11 128 136
349 345 344 350 347 347 345 344 343 342 332 327 335 339 340 5 99 330 323 337 330 333 258 303 296 333 67 49 7 109 172 159 196 325 317 316 359 312 127 228 216 186 161 148 154
340 339 339 338 339 339 339 336 335 336 322 316 331 337 336 95 157 289 330 336 331 324 307 342 22 77 89 113 11 90 45 27 54 7 353 306 303 291 223 233 142 178 165 161 170
331 330 331 332 336 333 334 331 330 331 311 305 317 345 62 50 24 289 331 341 341 2 39 47 73 60 122 121 88 87 148 84 150 83 135 301 265 261 262 238 339 140 155 176 180
332 331 330 329 331 329 331 329 329 326 305 299 318 323 56 77 299 325 334 348 6 29 21 34 108 7 98 86 106 148 122 140 111 162 51 343 277 12 285 228 198 162 183 185 187
334 333 334 328 328 327 330 330 328 321 313 311 325 346 57 135 326 327 355 310 336 10 81 23 306 97 107 103 178 115 110 26 331 334 332 4 261 233 250 335 171 185 198 199 204
339 338 337 328 324 329 328 328 325 321 313 318 329 73 88 293 287 352 344 321 352 356 75 312 341 98 75 140 51 53 50 40 290 355 352 358 275 264 5 169 210 208 213 211 213
342 339 334 326 326 324 322 315 304 322 309 320 342 86 62 350 27 314 354 337 308 317 340 331 53 91 50 87 35 19 172 326 308 48 329 53 275 272 345 200 242 230 229 222 215
337 334 331 329 327 327 327 182 337 5 343 296 48 49 12 320 303 328 309 350 357 326 21 40 45 66 27 61 213 239 25 313 269 14 341 275 264 277 268 255 255 258 231 222 215
331 332 332 333 332 338 31 29 21 353 38 97 264 141 323 302 266 353 359 342 348 44 55 11 62 52 334 31 84 111 135 260 279 40 339 254 274 274 286 251 252 245 234 218 208
332 337 338 331 335 359 65 75 98 201 81 14 36 44 317 342 359 337 359 63 60 61 342 25 79 336 1 30 66 66 80 287 288 118 359 297 283 286 284 268 258 245 227 176 143
343 338 333 322 320 36 72 76 1 346 92 360 15 7 316 5 53 327 23 73 83 51 13 112 148 358 59 33 47 46 157 325 257 324 258 317 294 311 289 76 16 23 72 126 153
351 345 336 329 81 145 50 334 24 56 79 313 354 8 349 355 28 295 14 80 39 154 84 78 358 59 43 85 75 321 7 32 16 38 272 26 279 302 310 231 149 98 113 145 155
357 348 352 42 133 56 309 338 64 58 68 301 311 230 311 57 308 1 345 23 70 60 79 258 29 49 56 38 54 217 25 63 99 89 43 339 70 271 305 254 226 211 204 188 178
6 356 46 37 53 36 355 49 58 46 260 334 307 354 36 14 8 332 23 53 136 83 43 87 22 55 61 52 40 66 53 31 59 93 21 263 121 284 232 222 201 200 208 198 185
21 30 56 51 100 333 50 52 43 113 338 290 343 20 108 344 3 28 9 23 87 59 348 344 348 347 36 56 17 62 50 335 350 6 227 319 28 245 266 244 208 191 199 205 198
17 57 52 73 9 75 65 51 84 234 226 280 16 41 75 357 22 344 49 37 39 80 97 111 331 99 344 66 192 75 141 156 227 258 273 356 245 253 237 265 278 204 182 183 194
19 34 52 336 14 83 73 60 192 190 189 114 59 57 322 353 141 36 354 196 157 108 134 111 282 143 41 12 93 257 47 171 100 73 47 252 292 295 265 302 320 197 178 205 207
95 74 1 323 50 71 75 189 145 243 37 114 125 116 210 281 23 59 278 236 153 115 133 187 344 271 290 68 26 153 152 39 2 308 283 283 277 242 291 252 257 238 216 218 220
61 66 280 342 61 50 131 216 220 245 253 110 134 131 207 244 201 275 241 350 126 129 88 128 103 288 33 196 186 35 320 35 128 170 202 266 259 218 224 229 221 226 218 213 214
88 61 316 28 56 58 107 150 209 311 21 101 112 120 185 191 266 267 250 200 156 150 143 209 144 232 226 260 192 170 197 157 143 263 237 188 264 223 233 231 208 246 232 237 233
93 198 336 73 120 106 122 81 208 312 256 151 109 144 179 183 359 228 276 96 149 151 165 173 304 356 335 4 357 223 209 190 146 94 213 172 256 280 275 285 251 262 263 246 245
87 56 340 43 112 124 139 177 42 283 239 130 102 82 122 356 204 262 278 293 189 203 184 167 193 184 217 206 147 216 231 228 168 153 236 230 261 308 295 289 287 254 253 261 248
39 106 187 195 340 94 128 148 123 108 350 13 14 171 157 203 321 246 239 302 188 248 201 161 225 233 249 246 215 246 233 211 212 217 227 275 268 237 256 259 261 263 242 262 262
112 121 15 117 208 110 357 210 155 258 143 267 148 182 172 172 201 219 244 227 231 334 181 208 264 117 272 251 257 260 253 238 238 248 256 260 271 265 275 268 275 262 238 246 251
348 46 95 66 115 92 224 177 200 153 288 178 190 176 232 237 228 250 221 220 243 220 201 209 213 79 270 265 311 274 235 237 249 238 235 256 260 288 278 267 257 269 247 247 254